Weather History for KMXF - August, 2013

Change the Weather History Date:

Friday, August 9, 2013

  Actual Average Record
Temperature  
Mean Temperature 82 °F -  
Max Temperature 91 °F 90 °F 103 °F (2007)
Min Temperature 73 °F 72 °F 69 °F (2002)
Cooling Degree Days 17    
Growing Degree Days 32 (Base 50)    
Moisture  
Dew Point 76 °F    
Average Humidity 80    
Maximum Humidity 100    
Minimum Humidity 55    
Precipitation  
Precipitation 0.03 in - - ()
Sea Level Pressure  
Sea Level Pressure 30.04 in    
Wind  
Wind Speed 5 mph (South)    
Max Wind Speed 9 mph    
Max Gust Speed 17 mph    
Visibility 9 miles    
Events Rain    
Averages and records for this station are not official NWS values.
T = Trace of Precipitation, MM = Missing Value Source: NWS Daily Summary

Daily Weather History Graph

Daily Weather History Graph

Search for Another Location

Airport or City:

Trip Planner

Search our weather history database for the weather conditions in past years. The results will help you decide how hot, cold, wet, or windy it might be!

Date:

Astronomy

Aug. 09, 2013 Rise Set
Actual Time 6:05 AM CDT 7:35 PM CDT
Civil Twilight 5:39 AM CDT 8:01 PM CDT
Nautical Twilight 5:07 AM CDT 8:33 PM CDT
Astronomical Twilight 4:35 AM CDT 9:06 PM CDT
Moon 8:38 AM CDT (8/9) 8:59 PM CDT (8/9)
Length of Visible Light 14h 22m
Length of Day
13h 30m
Waxing Crescent, 8% of the Moon is Illuminated
Aug 9
Waxing Crescent
Aug 14
First Quarter
Aug 20
Full
Aug 28
Last Quarter
Sep 5
New

Hourly Weather History & Observations

Time (CDT) Temp. Heat Index Dew Point Humidity Pressure Visibility Wind Dir Wind Speed Gust Speed Precip Events Conditions
12:58 AM 77.0 °F - 73.4 °F 89% 29.99 in 10.0 mi SE 4.6 mph - N/A   Clear
1:58 AM 75.2 °F - 73.4 °F 94% 30.01 in 10.0 mi SSE 3.5 mph - N/A   Clear
3:58 AM 73.4 °F - 73.4 °F 100% 30.02 in 10.0 mi North 2.3 mph - N/A   Clear
4:58 AM 75.2 °F - 73.4 °F 94% 30.01 in 10.0 mi NE 3.5 mph - N/A   Clear
5:58 AM 75.2 °F - 73.4 °F 94% 30.03 in 10.0 mi East 2.3 mph - N/A   Partly Cloudy
9:57 AM 84.2 °F 94.1 °F 77.0 °F 79% 30.06 in 10.0 mi SE 8.1 mph - N/A   Scattered Clouds
10:16 AM 84.2 °F 94.1 °F 77.0 °F 79% 30.06 in 10.0 mi South 5.8 mph - N/A   Mostly Cloudy
10:21 AM 86.0 °F 96.9 °F 77.0 °F 74% 30.06 in 10.0 mi South 6.9 mph - N/A   Scattered Clouds
10:36 AM 86.0 °F 96.9 °F 77.0 °F 74% 30.06 in 10.0 mi SSE 6.9 mph - N/A   Mostly Cloudy
10:46 AM 86.0 °F 96.9 °F 77.0 °F 74% 30.07 in 10.0 mi SSE 5.8 mph - N/A   Mostly Cloudy
10:56 AM 86.0 °F 96.9 °F 77.0 °F 74% 30.06 in 10.0 mi South 5.8 mph - N/A   Mostly Cloudy
10:58 AM 86.0 °F 96.9 °F 77.0 °F 74% 30.06 in 10.0 mi South 5.8 mph - N/A   Mostly Cloudy
11:58 AM 87.8 °F 99.7 °F 77.0 °F 70% 30.06 in 10.0 mi SE 6.9 mph - N/A   Scattered Clouds
12:18 PM 89.6 °F 102.2 °F 77.0 °F 66% 30.04 in 10.0 mi SE 6.9 mph - N/A   Mostly Cloudy
12:23 PM 89.6 °F 102.2 °F 77.0 °F 66% 30.05 in 10.0 mi SSE 9.2 mph - N/A   Mostly Cloudy
12:56 PM 84.2 °F 94.1 °F 77.0 °F 79% 30.04 in 4.0 mi NNW 5.8 mph - N/A Rain Rain
12:58 PM 84.2 °F 94.1 °F 77.0 °F 79% 30.05 in 4.0 mi NNW 6.9 mph - 0.01 in Rain Rain
1:03 PM 82.4 °F 92.4 °F 78.8 °F 89% 30.04 in 2.5 mi NW 5.8 mph - N/A Rain Light Rain
1:08 PM 82.4 °F 92.4 °F 78.8 °F 89% 30.04 in 5.0 mi NNW 4.6 mph - N/A Rain Light Rain
1:14 PM 82.4 °F 90.9 °F 77.0 °F 84% 30.03 in 10.0 mi WNW 5.8 mph - N/A   Mostly Cloudy
1:58 PM 86.0 °F 99.3 °F 78.8 °F 79% 30.01 in 10.0 mi WNW 4.6 mph - 0.02 in   Mostly Cloudy
2:58 PM 91.4 °F 102.5 °F 75.2 °F 59% 30.01 in 10.0 mi SSE 8.1 mph - N/A   Scattered Clouds
3:58 PM 91.4 °F 102.5 °F 75.2 °F 59% 30.00 in 10.0 mi SE 6.9 mph - N/A   Partly Cloudy
4:58 PM 91.4 °F 100.1 °F 73.4 °F 55% 30.01 in 10.0 mi SSE 3.5 mph - N/A   Partly Cloudy
5:58 PM 86.0 °F 96.9 °F 77.0 °F 74% 30.01 in 10.0 mi West 5.8 mph 17.3 mph N/A   Partly Cloudy
6:58 PM 80.6 °F 85.4 °F 73.4 °F 79% 30.01 in 10.0 mi WNW 2.3 mph - N/A   Clear
7:58 PM 78.8 °F - 73.4 °F 83% 30.06 in 10.0 mi SW 4.6 mph - N/A   Mostly Cloudy
8:58 PM 78.8 °F - 73.4 °F 83% 30.08 in 10.0 mi SSW 3.5 mph - N/A   Mostly Cloudy
9:58 PM 77.0 °F - 75.2 °F 94% 30.09 in 10.0 mi NW 2.3 mph - N/A   Clear
10:58 PM 75.2 °F - 75.2 °F 100% 30.09 in 10.0 mi West 2.3 mph - N/A   Clear
11:58 PM 75.2 °F - 73.4 °F 94% 30.08 in 10.0 mi South 3.5 mph - N/A   Clear